星链-35689(STARLINK-35689)

导读

STARLINK-35689是美国太空探索技术公司SpaceX星链星座的组成部分,于2025年11月15日发射升空,旨在为全球提供高速低延迟宽带互联网服务,尤其覆盖偏远地区与网络基础设施薄弱区域。星链卫星依靠近地轨道部署,通过星间链路实现全球组网,STARLINK-35689是星链大规模组网进程中的一颗卫星,持续补充星座容量与覆盖能力。

Basic Information
目录编号:
66494
目录名称:
STARLINK-35689
国际标识:
2025-263K
轨道中心:
EARTH
卫星名称:
星链-35689
卫星全名:
星链-35689(STARLINK-35689)
卫星状态:
在轨 (已飞行210 天)
发射日期:
2025-11-15 UTC
国别 :
美国 (US)
星等 :
--
Orbit Information
数据来源 国际轨道数据 AOE轨道数据
星历时间 2026-06-11T03:03:36+0800
2天前
查看轨道信息
2026-06-10T06:00:00+0800
3天前
查看轨道信息
半长轴 6861.099km 6861.038km
偏心率 0.0000787 0.000235
轨道倾角 43.002° 43.005°
近地点辐角 245.066° 273.524°
升交点赤经 185.275° 190.236°
平近点角 115.011° 295.220°
近地点 482.422km 481.288km
远地点 483.502km 484.514km
周期 94.265分钟 94.264分钟
每日圈数 15.276093 15.276296
Detailed Information
固有亮度:
5
最大亮度:
2.5
卫星平台:
Starlink V1.0
覆盖范围:
全球
运营商:
太空探索技术公司
运营商所在国:
美国
制造商(研发单位):
太空探索技术公司
制造商所在国:
美国
使用方式:
暂无
Satellite Introduction
Starlink 计划是 SpaceX 推出的全球卫星互联网项目,通过发射低轨道卫星,为全球尤其是偏远地区提供高速、低延迟的互联网服务。自 2019 年起,Starlink 已部署数千颗卫星,旨在缩小全球数字鸿沟,推动互联网普及。该项目还为军事、航空等行业提供通信支持,带来广泛经济效益。
2D Orbit Map
3D Orbit Map
Orbit Altitude Analysis Chart
Orbit Inclination Analysis Chart
Orbit Comprehensive Analysis Chart
View Comprehensive Chart